Location: Diebersbach
(48.5163°N, 8.0558°E)
Time: 09:41:05
(UTC+00:00)

Cosmos 1242 Rocket - Pass Details

Date: 20 June 2021
Orbit: 446 x 483 km, 81.2° (Epoch: 03 August)

Event Time Altitude Azimuth Distance (km) Brightness Sun altitude
Rises 00:18:32 0° 355° (N) 2,523 7.7 -17.2°
Reaches altitude 10° 00:20:45 10° 5° (N) 1,647 6.5 -17.1°
Maximum altitude 00:24:06 35° 73° (ENE) 787 3.9 -17.0°
Enters shadow 00:26:21 18° 131° (SE) 1,252 4.4 -16.9°
